Find Starlink 37550

NORAD ID: 100277 Int'l Des: 2026-183 Owner: SPXS Country: US Constellation: starlink operational

現在のビュー

3D地球を読み込み中...

About Starlink 37550

Starlink 37550 (NORAD 100277) is a starlink constellation satellite launched Aug 11, 2026 by SPXS of US. with a mass of 575.00 kg.

次回通過

Passes for default location (London). Set your location on the main map for personalized predictions.

高度履歴

Loading altitude history...

軌道要素

1 A0277U 26183F 26255.61656217 -.00748338 00000-0 -60756-2 0 9991
2 A0277 53.1568 296.3800 0001293 65.0674 295.0480 15.72195858 5067
Epoch: Sep 12, 2026 • Age: 194 hours

現在のステータス

高度 383.2 km
遠地点 / 近地点 N/A
速度 7.68 km/s
衛星直下点 -5.54°S, 166.26°W
打ち上げ日 Aug 11, 2026
運用期間 0.1 years
タイプ internet

技術仕様

分類 Payload
質量 575.00 kg
乾燥質量 530.00 kg
長さ 0.30 m
スパン 29.00 m
形状 ? Box + pan
製造者 SPXS
バスタイプ Starlink V2MO
フェーズステータス In Orbit
所有者/国 SPXS/US

Most Searched